This demonstration page uses our WeatherBlox Daily Observations layout. Learn more.

Left ArrowRight Arrow

38.20091, -84.87328

Hourly Observations for January 22, 2015

Temp ( °F °C ) Dew Point ( °F °C ) Humidity (%) Winds ( mph kmh ) Pressure ( in mb ) Visibility ( mi km ) Precip ( " mm )
12:53 am 00:53 Clear 29 -1.7 24 -4.4 82 82 W 3 6 30.24 1024 10 16 0.00 0.00
1:53 am 01:53 Clear 29 -1.7 24 -4.4 82 82 W 3 6 30.26 1025 10 16 0.00 0.00
2:53 am 02:53 Mostly Cloudy 26 -3.3 23 -5 88 88 WSW 3 6 30.28 1025 10 16 0.00 0.00
3:26 am 03:26 Partly Cloudy 28 -2.2 24 -4.4 85 85 WSW 3 6 30.33 1027 10 16 0.00 0.00
3:53 am 03:53 Mostly Cloudy 28 -2.2 24 -4.4 85 85 WSW 5 7 30.29 1026 10 16 0.00 0.00
4:53 am 04:53 Cloudy 31 -0.6 26 -3.3 82 82 Calm 30.29 1026 10 16 0.00 0.00
5:53 am 05:53 Cloudy 31 -0.6 26 -3.3 82 82 Calm 30.32 1027 10 16 0.00 0.00
6:34 am 06:34 Cloudy 31 -0.6 26 -3.3 82 82 Calm 30.39 1029 10 16 0.00 0.00
6:45 am 06:45 Cloudy 31 -0.6 26 -3.3 82 82 Calm 30.39 1029 10 16 0.00 0.00
6:53 am 06:53 Cloudy 31 -0.6 27 -2.8 85 85 Calm 30.34 1028 10 16 0.00 0.00
7:53 am 07:53 Cloudy 31 -0.6 27 -2.8 85 85 SW 3 6 30.36 1028 10 16 0.00 0.00
8:53 am 08:53 Cloudy 31 -0.6 27 -2.8 85 85 Calm 30.39 1029 9 14 0.00 0.00
9:53 am 09:53 Cloudy 33 0.6 28 -2.2 82 82 Calm 30.41 1030 10 16 0.00 0.00
10:10 am 10:10 Cloudy 32 0 28 -2.2 85 85 Calm 30.45 1031 9 14 0.00 0.00
10:53 am 10:53 Cloudy 34 1.1 28 -2.2 79 79 Calm 30.42 1030 10 16 0.00 0.00
11:53 am 11:53 Cloudy 36 2.2 28 -2.2 73 73 NNW 3 6 30.43 1030 10 16 0.00 0.00
12:48 pm 12:48 Cloudy 37 3 27 -3 65 65 NNE 6 9 30.45 1031 10 16 0.00 0.00
12:53 pm 12:53 Cloudy 37 2.8 27 -2.8 67 67 NNE 5 7 30.41 1030 10 16 0.00 0.00
1:25 pm 13:25 Cloudy 37 2.8 26 -3.3 65 65 NNE 6 9 30.45 1031 10 16 0.00 0.00
1:53 pm 13:53 Cloudy 37 2.8 27 -2.8 67 67 Calm 30.42 1030 10 16 0.00 0.00
2:29 pm 14:29 Cloudy 38 3.3 26 -3.3 62 62 NNW 3 6 30.45 1031 10 16 0.00 0.00
2:44 pm 14:44 Cloudy 37 2.8 26 -3.3 65 65 NNW 3 6 30.45 1031 10 16 0.00 0.00
2:53 pm 14:53 Cloudy 38 3.3 27 -2.8 65 65 NNE 5 7 30.41 1030 10 16 0.00 0.00
3:53 pm 15:53 Cloudy 37 2.8 25 -3.9 62 62 NNW 3 6 30.42 1030 10 16 0.00 0.00
4:53 pm 16:53 Cloudy 37 2.8 25 -3.9 62 62 N 3 6 30.42 1030 10 16 0.00 0.00
5:53 pm 17:53 Cloudy 37 2.8 26 -3.3 65 65 VRB 3 6 30.41 1030 10 16 0.00 0.00
6:13 pm 18:13 Cloudy 37 2.8 26 -3.3 65 65 NNE 3 6 30.45 1031 10 16 0.00 0.00
6:53 pm 18:53 Cloudy 36 2.2 26 -3.3 67 67 Calm 30.42 1030 10 16 0.00 0.00
7:53 pm 19:53 Cloudy 36 2.2 26 -3.3 67 67 NNE 3 6 30.42 1030 10 16 0.00 0.00
8:53 pm 20:53 Cloudy 35 1.7 26 -3.3 70 70 NNE 6 9 30.41 1030 10 16 0.00 0.00
9:26 pm 21:26 Cloudy 35 1.7 26 -3.3 70 70 NNE 6 9 30.45 1031 10 16 0.00 0.00
9:53 pm 21:53 Cloudy 35 1.7 26 -3.3 70 70 NNE 5 7 30.40 1030 10 16 0.00 0.00
10:53 pm 22:53 Cloudy 34 1.1 25 -3.9 70 70 Calm 30.41 1030 10 16 0.00 0.00
11:53 pm 23:53 Cloudy 34 1.1 25 -3.9 70 70 NNE 3 6 30.40 1030 10 16 0.00 0.00

Powered by AerisWeather